This demonstration page uses our WeatherBlox Daily Observations layout. Learn more.

40.92945, -100.16068

Hourly Observations for May 18, 2016

Temp ( °F °C ) Dew Point ( °F °C ) Humidity (%) Winds ( mph kmh ) Pressure ( in mb ) Visibility ( mi km ) Precip ( " mm )
12:15 am 00:15 Clear 46 7.6 40 4.2 79 79 ENE 3 6 30.3 1026 10 16.0934 N/A
12:35 am 00:35 Clear 45 7 39 3.9 81 81 Calm 30.3 1026 10 16.0934 N/A
12:55 am 00:55 Clear 45 7 39 4 81 81 W 5 7 30.3 1026 10 16.0934 N/A
1:15 am 01:15 Clear 44 6.9 40 4.2 83 83 Calm 30.3 1026 10 16.0934 N/A
1:35 am 01:35 Clear 43 6.1 38 3.5 84 84 Calm 30.3 1026 10 16.0934 N/A
1:55 am 01:55 Clear 43 6.3 39 3.7 84 84 NW 3 6 30.27 1025 10 16.0934 N/A
2:15 am 02:15 Clear 42 5.5 38 3.3 86 86 Calm 30.3 1026 10 16.0934 N/A
2:35 am 02:35 Clear 42 5.5 38 3.2 85 85 NW 5 7 30.3 1026 10 16.0934 N/A
2:55 am 02:55 Clear 41 5.1 38 3.1 87 87 N 3 6 30.3 1026 10 16.0934 N/A
3:15 am 03:15 Clear 40 4.7 37 2.7 87 87 Calm 30.3 1026 10 16.0934 N/A
3:35 am 03:35 Clear 40 4.7 37 2.9 88 88 WSW 6 9 30.3 1026 10 16.0934 N/A
3:55 am 03:55 Clear 40 4.6 38 3.2 91 91 WNW 5 7 30.3 1026 10 16.0934 N/A
4:15 am 04:15 Clear 40 4.3 38 3.1 92 92 WNW 6 9 30.3 1026 7 11.26538 N/A
4:35 am 04:35 Clear 40 4.5 38 3.4 93 93 WNW 6 9 30.3 1026 10 16.0934 N/A
4:55 am 04:55 Clear 40 4.4 38 3.1 91 91 NW 5 7 30.3 1026 10 16.0934 N/A
5:15 am 05:15 Clear 38 3.2 35 1.9 91 91 Calm 30.3 1026 10 16.0934 N/A
5:35 am 05:35 Clear 38 3.3 35 1.8 90 90 W 3 6 30.3 1026 10 16.0934 N/A
5:55 am 05:55 Clear 38 3.5 36 2.1 91 91 WNW 3 6 30.3 1026 10 16.0934 N/A
6:15 am 06:15 Clear 38 3.5 35 1.9 89 89 W 3 6 30.3 1026 10 16.0934 N/A
6:35 am 06:35 Sunny 38 3.2 35 1.6 89 89 W 3 6 30.3 1026 10 16.0934 N/A
6:55 am 06:55 Sunny 38 3.3 35 1.9 91 91 WNW 3 6 30.3 1026 10 16.0934 N/A
7:15 am 07:15 Sunny 40 4.4 37 3 91 91 Calm 30.3 1026 10 16.0934 N/A
7:35 am 07:35 Sunny with Mist and Fog 42 5.7 40 4.6 93 93 Calm 30.27 1025 5 8.0467 N/A
7:55 am 07:55 Sunny 45 7 42 5.5 90 90 Calm 30.27 1025 10 16.0934 N/A
8:15 am 08:15 Sunny 47 8.6 42 5.7 82 82 Calm 30.3 1026 10 16.0934 N/A
8:35 am 08:35 Sunny 49 9.7 43 6.1 78 78 Calm 30.24 1024 10 16.0934 N/A
8:55 am 08:55 Sunny 52 11.2 44 6.7 74 74 Calm 30.24 1024 10 16.0934 N/A
9:15 am 09:15 Sunny 55 12.8 45 7.2 69 69 Calm 30.21 1023 10 16.0934 N/A
9:30 am 09:30 Sunny 59 15.1 45 7.4 60 60 Calm 30.21 1023 10 16.0934 N/A
9:55 am 09:55 undefined N/A N/A N/A undefined N/A N/A N/A N/A
10:15 am 10:15 Sunny 62 16.7 46 7.9 56 56 Calm 30.18 1022 10 16.0934 N/A
10:35 am 10:35 Sunny 62 16.7 44 6.9 53 53 Calm 30.18 1022 10 16.0934 N/A
10:55 am 10:55 Sunny 64 17.5 44 6.7 49 49 NW 6 9 30.18 1022 10 16.0934 N/A
11:15 am 11:15 Partly Cloudy 64 18 44 6.7 48 48 NW 6 9 30.18 1022 10 16.0934 N/A
11:35 am 11:35 Partly Cloudy 65 18.6 45 7 47 47 Calm 30.15 1021 10 16.0934 N/A
11:55 am 11:55 Mostly Cloudy 64 17.6 40 4.6 42 42 Calm 30.15 1021 10 16.0934 N/A
12:15 pm 12:15 Partly Cloudy 66 18.8 40 4.2 38 38 E 5 7 30.12 1020 10 16.0934 N/A
12:35 pm 12:35 Sunny 67 19.5 43 6.1 42 42 ESE 6 9 30.12 1020 10 16.0934 N/A
12:55 pm 12:55 Partly Cloudy 67 19.5 41 5.2 39 39 SE 3 6 30.12 1020 10 16.0934 N/A
1:15 pm 13:15 Mostly Cloudy 64 17.7 42 5.3 44 44 Calm 30.15 1021 10 16.0934 N/A
1:35 pm 13:35 Cloudy 65 18.1 41 4.9 42 42 W 5 7 30.09 1019 10 16.0934 N/A
1:55 pm 13:55 Cloudy 65 18.3 43 5.9 44 44 S 10 17 30.09 1019 10 16.0934 N/A
2:15 pm 14:15 Cloudy 65 18.2 42 5.7 44 44 SSW 6 9 30.09 1019 10 16.0934 N/A
2:35 pm 14:35 Cloudy 65 18.6 42 5.4 42 42 SSE 6 9 30.09 1019 10 16.0934 N/A
2:55 pm 14:55 Cloudy 67 19.6 42 5.5 40 40 SE 9 15 30.09 1019 10 16.0934 N/A
3:15 pm 15:15 Cloudy 66 19.1 41 5.1 40 40 ESE 7 11 30.06 1018 10 16.0934 N/A
3:35 pm 15:35 Partly Cloudy 66 18.9 42 5.4 41 41 SSE 7 11 30.06 1018 10 16.0934 N/A
3:55 pm 15:55 Mostly Cloudy 66 18.8 42 5.8 43 43 ESE 7 11 30.06 1018 10 16.0934 N/A
4:15 pm 16:15 Cloudy 66 18.8 43 6 43 43 S 5 7 30.03 1017 10 16.0934 N/A
4:35 pm 16:35 Cloudy 65 18.4 43 6.3 45 45 S 10 17 30.03 1017 10 16.0934 N/A
4:55 pm 16:55 Cloudy 65 18.5 42 5.5 43 43 SSW 9 15 30.03 1017 10 16.0934 N/A
5:15 pm 17:15 Cloudy 69 20.8 42 5.8 38 38 SW 13 20 30 1016 10 16.0934 N/A
5:35 pm 17:35 Mostly Cloudy 69 20.3 43 6 39 39 SW 15 24 30.03 1017 10 16.0934 N/A
5:55 pm 17:55 Partly Cloudy 67 19.3 42 5.8 41 41 S 10 17 30.03 1017 10 16.0934 N/A
6:15 pm 18:15 Sunny 64 17.6 42 5.4 45 45 S 10 17 30.03 1017 10 16.0934 N/A
6:35 pm 18:35 Partly Cloudy 63 17.3 42 5.8 47 47 S 10 17 30 1016 10 16.0934 N/A
6:55 pm 18:55 Mostly Cloudy 64 17.8 44 6.4 47 47 S 10 17 30 1016 10 16.0934 N/A
7:15 pm 19:15 Cloudy 66 19 43 6.2 43 43 S 9 15 30 1016 10 16.0934 N/A
7:35 pm 19:35 Mostly Cloudy 65 18.5 41 4.9 41 41 SSW 12 19 30 1016 10 16.0934 N/A
7:55 pm 19:55 Partly Cloudy 63 17 42 5.5 47 47 S 8 13 30.03 1017 10 16.0934 N/A
8:15 pm 20:15 Sunny 61 16.1 43 6 51 51 S 10 17 30.03 1017 10 16.0934 N/A
8:35 pm 20:35 Partly Cloudy 59 14.8 44 6.7 59 59 S 8 13 30.03 1017 10 16.0934 N/A
8:55 pm 20:55 Mostly Cloudy 56 13.4 44 6.7 64 64 S 8 13 30.06 1018 10 16.0934 N/A
9:15 pm 21:15 Partly Cloudy 54 12.3 44 6.5 68 68 S 8 13 30.06 1018 10 16.0934 N/A
9:35 pm 21:35 Clear 53 11.7 43 6.2 69 69 S 9 15 30.09 1019 10 16.0934 N/A
9:55 pm 21:55 Clear 53 11.9 43 6.3 69 69 S 9 15 30.09 1019 10 16.0934 N/A
10:15 pm 22:15 Clear 53 11.4 43 6.3 71 71 S 8 13 30.09 1019 10 16.0934 N/A
10:35 pm 22:35 Clear 51 10.8 43 6.1 73 73 S 7 11 30.12 1020 10 16.0934 N/A
10:55 pm 22:55 Clear 50 10.2 43 6.1 76 76 SSE 7 11 30.12 1020 10 16.0934 N/A
11:15 pm 23:15 Clear 50 10.1 43 6 76 76 SSE 7 11 30.12 1020 10 16.0934 N/A
11:35 pm 23:35 Clear 50 10 44 6.4 79 79 S 8 13 30.12 1020 10 16.0934 N/A
11:55 pm 23:55 Clear 49 9.2 43 6.1 81 81 SSE 7 11 30.12 1020 10 16.0934 N/A

Powered by AerisWeather